Tracking 32407 objects as of 5-Dec-2025
HD Live streaming from Space Station
objects crossing your sky now

ECHOSTAR 7

Track ECHOSTAR 7 now!
ECHOSTAR 7 is classified as:


NORAD ID: 27378
Int'l Code: 2002-006A
Perigee: 35,896.8 km
Apogee: 35,935.6 km
Inclination: 3.5 °
Period: 1,442.4 minutes
Semi major axis: 42287 km
RCS: 17.7827 m2 (large)
Launch date: February 21, 2002
Source: United States (US)
Launch site: AIR FORCE EASTERN TEST RANGE (AFETR)

CONUS, Hawaii, Alaska and Puerto Rico; 32 Ku-band transponders
Your satellite tracking list
Your tracking list is empty




NASA's NSSDC Master Catalog

Two Line Element Set (TLE):
1 27378U 02006A   25338.55719494 -.00000193  00000-0  00000+0 0  9993
2 27378   3.5117  79.8195 0004586 183.5040 296.6884  0.99836423 48592
Source of the keplerian elements: AFSPC